Tracking 29892 objects as of 21-Nov-2024
HD Live streaming from Space Station
objects crossing your sky now

THORAD AGENA D DEB

Track THORAD AGENA D DEB now!
10-day predictions


NORAD ID: 4993
Int'l Code: 1970-025HP
Perigee: 837.0 km
Apogee: 963.2 km
Inclination: 100.2 °
Period: 102.8 minutes
Semi major axis: 7271 km
RCS: 0.013 m2 (small)
Launch date: April 8, 1970
Source: United States (US)
Launch site: AIR FORCE WESTERN TEST RANGE (AFWTR)

Note: This is SATELLITE DEBRIS
Your satellite tracking list
Your tracking list is empty




NASA's NSSDC Master Catalog

Two Line Element Set (TLE):
1 04993U 70025HP  24325.13023222  .00002065  00000-0  13874-2 0  9998
2 04993 100.1813  37.0954 0086767  82.1841 278.9159 14.00235777758330
Source of the keplerian elements: AFSPC